Regional Weather Roundup
Issued by NWS

Home | Current Version | Previous Version | Graphics & Text | Print | Product List | Glossary On
Versions: 1 2 3 4 5 6 7 8 9 10 11 12 13 14 15 16 17 18 19 20 21 22 23 24 25 26 27 28 29 30 31 32 33 34 35 36 37 38 39 40 41 42 43 44 45 46 47 48 49 50
000
ASUS45 KCYS 041310
RWRWY

WYOMING REGIONAL WEATHER ROUNDUP
NATIONAL WEATHER SERVICE CHEYENNE WY
700 AM MDT TUE AUG 04 2015

NOTE:  "FAIR" INDICATES FEW OR NO CLOUDS BELOW 12,000 FEET
WITH NO SIGNIFICANT WEATHER AND/OR OBSTRUCTIONS TO VISIBILITY.

WYZ001-041400-
YELLOWSTONE NATIONAL PARK

CITY           SKY/WX    TMP DP  RH WIND       PRES   REMARKS
LK YELLOWSTONE   N/A     48  47  96 CALM      30.28R
W YELLOWSTONE  NOT AVBL

$$
WYZ002>013-054>058-071-098>099-041400-
NORTHERN WYOMING

CITY           SKY/WX    TMP DP  RH WIND       PRES   REMARKS
JACKSON        CLOUDY    54  54 100 CALM      30.20R
CODY           CLOUDY    63  50  63 W3        30.02R
GREYBULL       MOCLDY    64  49  57 CALM      29.95R
WORLAND        MOCLDY    62  53  72 S5        29.96R
SHERIDAN       MOCLDY    65  49  56 W7        29.95R
BUFFALO        FAIR      63  48  58 NW5       30.00R
GILLETTE       FAIR      62  53  72 CALM      29.98R
HULETT         FAIR      61  52  72 CALM      29.99R
NEWCASTLE      FAIR      61  54  77 CALM      30.01R

$$
WYZ014>020-022>026-101>103-041400-
CENTRAL WYOMING

CITY           SKY/WX    TMP DP  RH WIND       PRES   REMARKS
BIG PINEY      CLOUDY    52  48  86 NE7       30.21R
PINEDALE       CLOUDY    52  50  93 W12       30.19R
DUBOIS         FAIR      55  45  67 W22G28    30.17R
LANDER         MOCLDY    58  54  86 W7        30.04R
RIVERTON       CLOUDY    59  54  83 SW3       30.05R
CASPER         CLOUDY    61  54  77 SW13      30.04R
DOUGLAS        PTSUNNY   56  49  77 CALM      30.04R

$$
WYZ021-027>030-104>119-041400-
SOUTHERN WYOMING

CITY           SKY/WX    TMP DP  RH WIND       PRES   REMARKS
EVANSTON       FAIR      49  45  86 S6        30.26R
KEMMERER       FAIR      50  48  93 W9        30.26R
FORT BRIDGER   SUNNY     54  50  87 W10       30.27R
ROCK SPRINGS   FAIR      52  48  86 W20       30.19R
DIXON          CLOUDY    60  47  61 S12G21    30.22R
RAWLINS        CLOUDY    55  50  83 W20       30.16R
SARATOGA       CLOUDY    57  46  67 SW8       30.19S
LARAMIE        FAIR      54  47  77 W6        30.18R
CHEYENNE       PTSUNNY   62  47  57 W7        30.11R
TORRINGTON     FAIR      60  53  77 S3        30.00R
PINE BLUFFS    CLOUDY    54  50  87 CALM      30.07R

$$



USA.gov is the U.S. government's official web portal to all federal, state and local government web resources and services.